CW4482 Weather Reports


Display with metric or nautical units.
time (UTC)temp
F
wind
direction
speed
MPH
gust
MPH
rain 1hr
in
rain 24hr
in
rain mn
in
humidity
%
barometer
mb
20260506211523 83 157 0.0 0.0 0.00 0.00 0.00 86 1008.0
20260506210024 84 148 0.0 0.0 0.00 0.00 0.00 85 1008.0
20260506204524 83 124 0.0 0.0 0.00 0.00 0.00 86 1008.1
20260506203024 83 119 0.0 0.0 0.00 0.00 0.00 84 1008.3
20260506201525 83 159 0.0 0.0 0.00 0.00 0.00 88 1008.2
20260506200028 83 161 0.0 0.0 0.00 0.00 0.00 85 1008.5
20260506194532 84 155 0.0 0.0 0.00 0.00 0.00 84 1008.6
20260506193029 85 153 0.0 0.0 0.00 0.00 0.00 82 1008.8
20260506191524 85 153 0.0 0.0 0.00 0.00 0.00 84 1008.9
20260506190013 86 133 0.0 0.0 0.00 0.00 0.00 82 1009.0
20260506184538 85 148 0.0 0.0 0.00 0.00 0.00 85 1009.1
20260506183012 83 135 0.0 0.0 0.00 0.00 0.00 87 1009.6
20260506181517 83 194 0.0 0.0 0.00 0.00 0.00 86 1009.8
20260506180030 83 192 0.0 0.0 0.00 0.00 0.00 87 1010.1
20260506174531 83 193 0.0 0.0 0.00 0.00 0.00 87 1010.2
20260506173029 82 192 0.0 0.0 0.00 0.00 0.00 88 1010.3
20260506171531 82 192 0.0 0.0 0.00 0.00 0.00 87 1010.5
20260506170054 81 207 0.0 0.0 0.00 0.00 0.00 90 1010.4
20260506164529 80 175 0.0 0.0 0.00 0.00 0.00 93 1010.6
20260506163020 79 175 0.0 0.0 0.00 0.00 0.00 92 1010.7
20260506161518 79 175 0.0 0.0 0.00 0.00 0.00 92 1010.4
20260506160023 79 175 0.0 2.0 0.00 0.00 0.00 91 1010.4
20260506154530 79 175 0.0 0.0 0.00 0.00 0.00 91 1010.2
20260506153037 79 175 0.0 0.0 0.00 0.00 0.00 92 1010.1
20260506151529 79 175 0.0 2.0 0.00 0.00 0.00 91 1009.8
20260506150026 79 173 0.0 2.0 0.00 0.00 0.00 92 1009.7
20260506144529 79 175 1.0 2.0 0.00 0.00 0.00 93 1009.4
20260506143051 78 175 0.0 0.0 0.00 0.00 0.00 94 1009.3
20260506141526 77 180 0.0 0.0 0.00 0.00 0.00 95 1009.5
20260506140024 77 180 0.0 0.0 0.00 0.00 0.00 96 1009.5
20260506134517 76 180 0.0 1.0 0.00 0.00 0.00 96 1009.6
20260506133020 75 180 0.0 1.0 0.00 0.00 0.00 96 1009.6
20260506131530 75 180 0.0 1.0 0.00 0.00 0.00 96 1009.7
20260506130033 74 180 0.0 0.0 0.00 0.00 0.00 95 1009.6
20260506124537 74 180 0.0 0.0 0.00 0.00 0.00 95 1009.6
20260506123020 74 180 0.0 0.0 0.00 0.00 0.00 95 1009.6
20260506121526 74 180 0.0 1.0 0.00 0.00 0.00 95 1009.4
20260506120029 74 180 0.0 2.0 0.00 0.00 0.00 95 1009.2
20260506114532 73 180 0.0 3.0 0.00 0.00 0.00 95 1008.9
20260506113029 73 180 0.0 0.0 0.00 0.00 0.00 94 1008.7
20260506111551 74 180 0.0 0.0 0.00 0.00 0.00 94 1008.5
20260506110027 74 180 0.0 0.0 0.00 0.00 0.00 94 1008.3
20260506104527 74 180 0.0 0.0 0.00 0.00 0.00 94 1008.4
20260506103030 74 180 0.0 0.0 0.00 0.00 0.00 94 1008.2
20260506101551 74 173 0.0 0.0 0.00 0.00 0.00 94 1008.2
20260506100036 75 174 0.0 0.0 0.00 0.00 0.00 93 1008.1
20260506094513 74 178 0.0 0.0 0.00 0.00 0.00 93 1008.0
20260506093013 75 183 0.0 0.0 0.00 0.00 0.00 93 1007.9
20260506091533 75 184 0.0 6.0 0.00 0.00 0.00 93 1008.1
20260506090028 75 188 1.0 3.0 0.00 0.00 0.00 92 1008.2
20260506084530 75 193 2.0 4.0 0.00 0.00 0.00 92 1008.3
20260506083049 76 160 0.0 0.0 0.00 0.00 0.00 91 1008.3
20260506081516 76 178 0.0 0.0 0.00 0.00 0.00 91 1008.6
20260506073027 76 200 0.0 0.0 0.00 0.00 0.00 90 1008.9
20260506071527 76 186 0.0 0.0 0.00 0.00 0.00 90 1009.0
20260506061528 77 178 0.0 0.0 0.00 0.00 0.00 90 1009.2
20260506044512 77 171 0.0 0.0 0.00 0.00 0.00 89 1009.3
20260506043015 77 179 0.0 0.0 0.00 0.00 0.00 88 1009.2
20260506041517 77 184 0.0 0.0 0.00 0.00 0.00 88 1009.0
20260506040043 77 196 0.0 0.0 0.00 0.00 0.00 88 1009.1
20260506034517 77 190 0.0 0.0 0.00 0.00 0.00 88 1008.9
20260506033019 77 201 0.0 0.0 0.00 0.00 0.00 88 1008.9
20260506031522 78 191 0.0 0.0 0.00 0.00 0.00 87 1008.7
20260506030025 78 197 0.0 0.0 0.00 0.00 0.00 87 1008.6
20260506024525 78 176 0.0 0.0 0.00 0.00 0.00 87 1008.3
20260506023021 78 180 0.0 0.0 0.00 0.00 0.00 86 1008.1
20260506021525 78 178 0.0 0.0 0.00 0.00 0.00 86 1007.8
20260506020027 78 173 1.0 10.0 0.00 0.00 0.00 86 1007.7
20260506014528 78 200 4.0 16.0 0.00 0.00 0.00 85 1007.5
20260506013024 78 188 4.0 10.0 0.00 0.00 0.00 85 1007.4
20260506011526 79 189 4.0 9.0 0.00 0.00 0.00 85 1007.1
20260506010025 79 179 3.0 10.0 0.00 0.00 0.00 84 1007.0
20260506004529 79 208 4.0 6.0 0.00 0.00 0.00 83 1007.0
20260506003026 80 182 3.0 14.0 0.00 0.00 0.00 83 1006.7
20260506001524 80 164 5.0 10.0 0.00 0.00 0.00 83 1006.7
20260506000022 80 175 4.0 8.0 0.00 0.00 0.00 82 1006.6
20260505234526 80 183 3.0 11.0 0.00 0.00 0.00 82 1006.7
20260505233026 81 182 3.0 12.0 0.00 0.00 0.00 83 1006.7
20260505231522 81 182 3.0 8.0 0.00 0.00 0.00 82 1006.8
20260505230023 81 192 3.0 6.0 0.00 0.00 0.00 81 1006.6
20260505224524 82 217 3.0 11.0 0.00 0.00 0.00 81 1006.7
20260505223022 83 200 3.0 12.0 0.00 0.00 0.00 77 1006.7
20260505221516 83 185 5.0 16.0 0.00 0.00 0.00 75 1006.8
20260505220034 84 190 7.0 14.0 0.00 0.00 0.00 77 1006.8
20260505214515 84 197 4.0 11.0 0.00 0.00 0.00 78 1007.0
20260505213016 84 213 2.0 14.0 0.00 0.00 0.00 79 1007.1